Showing default

CARTOSAT 3, 44804

Orbit data source: Space-Track

CARTOSAT 3, 44804 is a payload satellite owned by ISRO (IN) in SSO that was launched on Wed, 27 Nov 2019 UTC via a PSLV-XL launch vehicle from the Sirharikota (SRI). Payload-class satellites include a variety of spacecraft equipped with specific instruments for various scientific and technological missions. These include communications satellites like Starlink; space stations such as the ISS; scientific satellites like the Hubble; Earth observation satellites from companies like Planet Labs, Umbra, and HawkEye 360; GPS; miniature CubeSats for education and research; and military/defense satellites.

Loading next visibility...
Identifier
44804, 2019-081A
Orbit
SSO
Last TLE update
5 hours ago
Origin
Manufacturer
ISRO
Mission
Operational Civil Imaging
Bus & Motor
IRS-2, AOCS
Mass
1,625 kg wet, ~1,500 kg dry
Launch date (UTC)
2019-11-27 (6 years ago)
Launch vehicle
PSLV-XL
Launch site
Sirharikota (SRI)
Object type
Payload
Rocket body
Debris
Shape & HBR
Hex Cyl + 2 Pan, Unknown HBR
Radar Cross Section
9.780 m², Large (>1 m²)

Expand to show TLE details & history

TLE from 5 hours ago
0 CARTOSAT 3
1 44804U 19081A   25186.51357692  .00003802  00000-0  18318-3 0  9996
2 44804  97.4799 247.8774 0012004 281.7895  78.1993 15.19292232310785
Epoch: 2025-07-05T12:19Z
TLE epoch observation values (Epoch: 2025-07-05T12:19:33.045Z)
Latitude
-0.00003°
Longitude
139.23918°
Altitude
509.384 km
Speed
7.61 km/s
True Right ascension
16h 31m 30s
True Declination
0° 00' 00"
Sunlit
Object was in full shadow at epoch
Visualization orbit readout
Latitude
60.93175°
Longitude
125.86016°
Altitude
524.797 km
Speed
7.603 km/s
Apparent Right ascension
16h 36m 03s
Apparent Declination
13° 29' 51"
Sunlit
Object is in daylight
Visualization observer readout
Local Sidereal Time
05:15:40
Azimuth
11.9° NNE
Elevation
-35.797°
Doppler factor
1
Orbital elements
Apogee altitude
513.211 km
Perigee altitude
496.686 km
Semi-major axis
6,883.085 km
Eccentricity
0.0012
Inclination
97.4799°
RAAN
247.8774°
Arg. of periapsis
281.7895°
True anomaly
Unknown
Mean anomaly
78.1993°
Eccentric anomaly
Unknown
Mean motion
3.80074 °/min
Orbital period
94.72 mins
BSTAR
0.00018318
Loading maneuver chart data...
Loading SW <> Apogee altitude chart data...
Loading historical data...
Loading historical data...
Loading historical data...
Loading historical data...
Loading historical data...
Loading historical data...
Loading historical data...

CARTOSAT 3 Visibility forecast

Observer location: undefined°, undefined°

Span
Click to sort rows by Start time (UTC) header in descending order
Start Az.
Max El. time (UTC)
Max El. Az.
Max El.
End time (UTC)
End Az.
6 mins2025-07-05 17:37:18.994Z347.356° N2025-07-05 17:40:18.994Z290.545° WNW25.357°2025-07-05 17:43:18.994Z231.109° WSW
5 mins2025-07-06 04:16:18.994Z176.706° S2025-07-06 04:18:18.994Z230.83° WSW43.475°2025-07-06 04:21:18.994Z342.363° N
|